[[{"header":{"parameterUnit":"m.s-1","parameterCategory":1,"la1":30.2991,"la2":30.254,"lo1":-89.0895,"lo2":-89.0444,"dy":0.0017,"dx":0.0017,"nx":28,"ny":28,"refTime":"2025-12-29T09:00:00:Z","depth":0,"parameterNumber":2,"parameterNumberName":"U-component_of_WINDS"},"data":[0,0,0,0,0,0,0,0,0,0,0,0,0,0,0,0,0,0,0,0,0,0,0,0,0,0,0,0,0,0,0,0,0,0,0,0,0,0,0,0,0,0,0,0,0,0,0,0,0,0,0,0,0,0,0,0,0,0,1.3946,1.3946,0,1.3942,1.3942,1.3942,1.3938,1.3938,1.3938,1.3938,1.3932,1.3932,1.3932,0,0,0,0,0,0,0,0,0,0,0,0,0,1.395,1.395,1.3946,1.3946,1.3946,1.3942,1.3942,1.3942,1.3938,1.3938,1.3938,1.3938,1.3932,1.3932,1.3932,0,0,0,0,0,0,0,0,0,0,0,0,0,1.3947,1.395,1.3946,1.3943,1.3943,1.3942,1.3942,1.3942,1.3938,1.3938,1.3938,1.3938,1.3932,1.3932,1.3932,1.3933,0,0,1.3932,1.3932,0,0,0,0,0,0,0,0,1.3947,1.3947,1.3944,1.3944,1.3943,1.394,1.3941,1.3939,1.3938,1.394,1.3938,1.3938,1.3935,1.3935,1.3934,1.3932,1.3932,1.3932,1.3932,1.3931,1.3931,0,0,0,0,0,0,0,1.3947,1.3947,1.3944,1.3944,1.3944,1.3942,1.3942,1.3941,1.3938,1.394,1.3939,1.3939,1.3935,1.3934,1.3934,1.3932,1.3932,1.3932,1.3931,1.3931,1.3932,1.3932,0,0,0,0,0,0,1.3948,1.3947,1.3944,1.3944,1.3945,1.3942,1.3942,1.3941,1.3938,1.3937,1.3939,1.3939,1.3934,1.3934,1.3934,1.3934,1.3931,1.3931,1.3931,1.3931,1.3932,1.3932,0,0,0,0,0,0,1.3948,1.3948,1.3945,1.3946,1.3945,1.3942,1.3942,1.3941,1.3941,1.3937,1.3937,1.3939,1.3934,1.3934,1.3933,1.3934,1.3931,1.3931,1.3931,1.3931,1.3932,1.3936,0,0,0,0,0,0,1.3948,1.3948,1.3948,1.3946,1.3945,1.3944,1.3942,1.3941,1.3941,1.394,1.3937,1.3937,1.3934,1.3933,1.3933,1.3934,1.3931,1.3931,1.3931,1.3932,1.3935,1.3936,1.3936,0,0,0,0,0,1.3948,1.3949,1.3948,1.3948,1.3945,1.3944,1.3944,1.3942,1.3941,1.3941,1.3939,1.3937,1.3934,1.3933,1.3933,1.3934,1.3931,1.3931,1.3932,1.3935,1.3936,1.3936,0,0,0,0,0,0,1.3951,1.3949,1.3948,1.3947,1.3946,1.3944,1.3944,1.3942,1.3941,1.3941,1.3938,1.3937,1.3937,1.3935,1.3934,1.3934,1.3932,1.3933,1.3935,1.3936,1.3936,1.3936,1.3931,0,0,0,0,0,1.3951,1.3951,1.3949,1.3949,1.3949,1.3946,1.3946,1.3944,1.3943,1.3942,1.394,1.3938,1.3937,1.3937,1.3935,1.3935,1.3935,1.3936,1.3936,1.3937,1.3937,1.3937,1.3937,1.3932,1.3932,1.3932,0,0,1.3952,1.3951,1.3951,1.395,1.3948,1.3948,1.3946,1.3945,1.3945,1.3942,1.3941,1.394,1.3938,1.3938,1.3938,1.3936,1.3938,1.3937,1.3937,1.3937,1.3937,1.3938,1.3938,1.3933,1.3932,1.3932,0,0,1.3954,1.3953,1.3953,1.3952,1.3951,1.395,1.395,1.3948,1.3947,1.3947,1.3945,1.3944,1.3942,1.3941,1.394,1.3943,1.3941,1.3943,1.3945,1.3945,1.3945,1.3946,1.3947,1.3947,1.3943,1.3943,1.3943,0,1.3955,1.3955,1.3953,1.3953,1.3953,1.3951,1.3951,1.395,1.3948,1.3948,1.3947,1.3945,1.3944,1.3944,1.3944,1.3944,1.3944,1.3942,1.3946,1.3946,1.3946,1.3947,1.3947,1.3943,1.3943,1.3943,1.3943,0,1.3956,1.3956,1.3956,1.3956,1.3955,1.3955,1.3954,1.3954,1.3953,1.3951,1.3951,1.395,1.3948,1.3948,1.3947,1.3948,1.3948,1.3946,1.3944,1.3947,1.3948,1.3948,1.3943,1.3943,1.3943,1.3943,0,0,1.3958,1.3957,1.3957,1.3957,1.3956,1.3956,1.3956,1.3956,1.3956,1.3955,1.3955,1.3954,1.3953,1.3952,1.3951,1.3951,1.3954,1.395,1.395,1.395,1.3955,1.3956,1.3956,1.3953,1.3953,1.3953,1.3955,0,1.3959,1.396,1.3959,1.396,1.396,1.3958,1.3959,1.3958,1.3957,1.3957,1.3956,1.3956,1.3954,1.3954,1.3954,1.3953,1.3954,1.3953,1.3952,1.3952,1.3953,1.3957,1.3957,1.396,1.3956,1.3956,1.3956,0,1.3961,1.3961,1.3961,1.3961,1.3961,1.3961,1.3961,1.3961,1.396,1.396,1.396,1.3958,1.3959,1.3957,1.3958,1.3957,1.3957,1.3956,1.3956,1.3956,1.3954,1.3956,1.396,1.3961,1.3956,1.3956,1.3956,0,1.3962,1.3962,1.3963,1.3962,1.3962,1.3962,1.3962,1.3962,1.3962,1.3962,1.3962,1.3961,1.3961,1.3961,1.396,1.3959,1.3961,1.3959,1.396,1.396,1.396,1.396,1.3964,1.396,1.396,1.396,1.396,0,1.3963,1.3963,1.3963,1.3963,1.3964,1.3964,1.3964,1.3964,1.3964,1.3964,1.3963,1.3963,1.3962,1.3962,1.3961,1.3962,1.3962,1.3961,1.3961,1.3961,1.3961,1.3961,1.396,1.396,1.396,1.396,1.396,0,1.3964,1.3964,1.3965,1.3965,1.3965,1.3965,1.3965,1.3965,1.3965,1.3966,1.3966,1.3965,1.3965,1.3965,1.3964,1.3964,1.3965,1.3964,1.3965,1.3965,1.3966,1.3966,1.3969,1.397,1.3966,1.3967,1.3967,0,1.3965,1.3965,1.3966,1.3966,1.3966,1.3966,1.3967,1.3966,1.3967,1.3967,1.3967,1.3967,1.3968,1.3968,1.3968,1.3968,1.3967,1.3969,1.3967,1.3967,1.3967,1.3967,1.3967,1.3968,1.3969,1.3969,1.3969,0,1.3966,1.3966,1.3966,1.3967,1.3967,1.3968,1.3968,1.3968,1.3968,1.3969,1.3969,1.3969,1.397,1.397,1.3971,1.397,1.3969,1.3969,1.397,1.3969,1.397,1.3969,1.3966,1.3969,1.3969,1.3969,1.3969,1.3969,1.3966,1.3967,1.3968,1.3968,1.3969,1.3969,1.397,1.397,1.397,1.3971,1.3971,1.3972,1.3972,1.3972,1.3972,1.3973,1.3972,1.3973,1.3973,1.3973,1.3973,1.397,1.3973,1.3973,1.3973,1.3973,1.3973,0,1.3967,1.3968,1.3969,1.3969,1.397,1.397,1.3971,1.3971,1.3972,1.3972,1.3973,1.3974,1.3975,1.3975,1.3975,1.3976,1.3975,1.3976,1.3976,1.3976,1.3973,1.3973,1.3976,1.3976,1.3976,1.3976,1.3976,1.3976,1.3968,1.3969,1.3969,1.3971,1.3971,1.3972,1.3972,1.3973,1.3974,1.3975,1.3975,1.3976,1.3976,1.3977,1.3978,1.3978,1.3978,1.3978,1.3978,1.3976,1.3976,1.3975,1.3975,1.3979,1.3979,1.3981,1.3981,1.3981]},{"header":{"parameterUnit":"m.s-1","parameterCategory":1,"la1":30.2991,"la2":30.254,"lo1":-89.0895,"lo2":-89.0444,"dy":0.0017,"dx":0.0017,"nx":28,"ny":28,"refTime":"2025-12-29T09:00:00:Z","depth":0,"parameterNumber":3,"parameterNumberName":"V-component_of_WINDS"},"data":[0,0,0,0,0,0,0,0,0,0,0,0,0,0,0,0,0,0,0,0,0,0,0,0,0,0,0,0,0,0,0,0,0,0,0,0,0,0,0,0,0,0,0,0,0,0,0,0,0,0,0,0,0,0,0,0,0,0,-5.8877,-5.8879,0,-5.9073,-5.9076,-5.9078,-5.9026,-5.9022,-5.9018,-5.9014,-5.9211,-5.922,-5.9229,0,0,0,0,0,0,0,0,0,0,0,0,0,-5.8451,-5.8459,-5.8876,-5.8879,-5.8881,-5.9073,-5.9076,-5.9078,-5.9026,-5.9022,-5.9017,-5.9012,-5.9209,-5.9219,-5.923,0,0,0,0,0,0,0,0,0,0,0,0,0,-5.864,-5.8462,-5.8876,-5.8879,-5.8881,-5.9073,-5.9076,-5.9079,-5.9027,-5.9021,-5.9016,-5.901,-5.9205,-5.9218,-5.9231,-5.9431,0,0,-5.9272,-5.9278,0,0,0,0,0,0,0,0,-5.863,-5.8656,-5.8876,-5.8879,-5.8882,-5.9019,-5.8998,-5.9197,-5.9029,-5.8972,-5.9014,-5.9007,-5.9152,-5.9169,-5.9219,-5.944,-5.9449,-5.9273,-5.9281,-5.9287,-5.9291,0,0,0,0,0,0,0,-5.8617,-5.8647,-5.8954,-5.8879,-5.8883,-5.8868,-5.8889,-5.9035,-5.9092,-5.8976,-5.8973,-5.8997,-5.9152,-5.9206,-5.9223,-5.9452,-5.9273,-5.9285,-5.9293,-5.9298,-5.9845,-5.9852,0,0,0,0,0,0,-5.8602,-5.8637,-5.8948,-5.896,-5.8739,-5.8881,-5.8904,-5.8981,-5.909,-5.9102,-5.9002,-5.8994,-5.9186,-5.9208,-5.923,-5.9471,-5.9287,-5.9299,-5.9307,-5.9839,-5.9847,-5.9854,0,0,0,0,0,0,-5.8593,-5.863,-5.894,-5.8798,-5.8836,-5.8894,-5.8981,-5.8988,-5.9042,-5.911,-5.9119,-5.9047,-5.9183,-5.9211,-5.9381,-5.9477,-5.9305,-5.9318,-5.9831,-5.9841,-5.985,-5.9954,0,0,0,0,0,0,-5.8581,-5.8627,-5.8705,-5.88,-5.8844,-5.909,-5.8987,-5.8996,-5.9065,-5.9057,-5.9155,-5.9165,-5.918,-5.9362,-5.9395,-5.9492,-5.9328,-5.9823,-5.9836,-5.9847,-5.9942,-5.9966,-5.9986,0,0,0,0,0,-5.8566,-5.8726,-5.8709,-5.8747,-5.8943,-5.9096,-5.9121,-5.9136,-5.9073,-5.9151,-5.9195,-5.9162,-5.9461,-5.938,-5.9416,-5.9519,-5.9817,-5.9832,-5.9846,-5.9932,-5.9961,-5.9986,0,0,0,0,0,0,-5.8639,-5.8738,-5.8721,-5.8917,-5.8998,-5.9087,-5.9185,-5.9166,-5.9266,-5.9254,-5.9267,-5.929,-5.9464,-5.9508,-5.9416,-5.9717,-5.963,-5.9652,-5.9682,-5.971,-5.9732,-5.9718,-5.9339,0,0,0,0,0,-5.8679,-5.8796,-5.8875,-5.904,-5.9082,-5.9127,-5.9194,-5.9199,-5.9283,-5.9317,-5.9373,-5.9456,-5.9568,-5.9641,-5.9749,-5.9948,-5.9968,-6.0036,-6.0058,-6.0076,-6.0096,-6.0203,-6.0234,-5.9902,-5.9902,-5.9902,0,0,-5.876,-5.8829,-5.8902,-5.9057,-5.9121,-5.9241,-5.9156,-5.9287,-5.9376,-5.9337,-5.9501,-5.9545,-5.9638,-5.9823,-5.9908,-5.9866,-6.0192,-6.0095,-6.0109,-6.0119,-6.0222,-6.0253,-6.0281,-5.9912,-5.991,-5.9909,0,0,-5.897,-5.9035,-5.9179,-5.9244,-5.9343,-5.9371,-5.9406,-5.9497,-5.9525,-5.9691,-5.9664,-5.9769,-5.9962,-6.0029,-6.0088,-6.0323,-6.0296,-6.0357,-6.0472,-6.0577,-6.0603,-6.0626,-6.0709,-6.0739,-6.0376,-6.0376,-6.0377,0,-5.9059,-5.9241,-5.9255,-5.9388,-5.9456,-5.9428,-5.9572,-5.9635,-5.9763,-5.981,-5.9761,-6.0003,-6.0063,-6.0263,-6.032,-6.037,-6.0408,-6.0346,-6.0598,-6.0622,-6.0644,-6.0723,-6.0754,-6.0383,-6.0382,-6.0382,-6.0381,0,-5.9344,-5.947,-5.9575,-5.97,-5.978,-5.9918,-5.9952,-6.0031,-6.0028,-6.0061,-6.0229,-6.03,-6.0421,-6.0469,-6.0467,-6.0669,-6.064,-6.0595,-6.0507,-6.0682,-6.0757,-6.0787,-6.0393,-6.039,-6.0388,-6.0387,0,0,-5.9607,-5.9738,-5.9776,-5.9832,-5.9938,-6.0035,-6.0171,-6.029,-6.0357,-6.0446,-6.0559,-6.0723,-6.0683,-6.075,-6.0755,-6.0847,-6.1027,-6.0791,-6.0793,-6.0832,-6.1253,-6.1286,-6.1321,-6.101,-6.1016,-6.1021,-6.1245,0,-5.9826,-6.0068,-6.0084,-6.0302,-6.0418,-6.0392,-6.051,-6.0587,-6.0621,-6.0723,-6.076,-6.0876,-6.0814,-6.0854,-6.0944,-6.0986,-6.1112,-6.097,-6.1115,-6.112,-6.1092,-6.136,-6.1396,-6.1604,-6.1274,-6.1279,-6.1283,0,-6.0115,-6.0213,-6.0443,-6.0532,-6.0581,-6.0687,-6.0797,-6.0896,-6.0981,-6.0999,-6.1075,-6.1067,-6.1205,-6.1112,-6.1301,-6.1205,-6.1264,-6.1294,-6.1302,-6.1316,-6.1212,-6.138,-6.167,-6.1701,-6.1329,-6.1325,-6.1322,0,-6.0282,-6.0472,-6.0634,-6.0683,-6.0791,-6.0866,-6.0914,-6.0994,-6.1064,-6.116,-6.1205,-6.1315,-6.1375,-6.146,-6.1481,-6.1412,-6.167,-6.1579,-6.1688,-6.1687,-6.1743,-6.174,-6.2047,-6.1783,-6.1782,-6.1782,-6.1781,0,-6.0526,-6.0667,-6.0711,-6.0811,-6.0968,-6.0984,-6.1139,-6.1182,-6.1253,-6.1359,-6.1342,-6.1442,-6.1465,-6.1568,-6.1585,-6.1739,-6.1766,-6.1784,-6.1787,-6.1786,-6.1783,-6.1825,-6.1811,-6.179,-6.1788,-6.1786,-6.1785,0,-6.074,-6.0775,-6.095,-6.1038,-6.1063,-6.1175,-6.1249,-6.1343,-6.1375,-6.151,-6.1542,-6.1592,-6.1713,-6.1743,-6.1887,-6.1898,-6.2079,-6.2069,-6.2051,-6.205,-6.2157,-6.2147,-6.2502,-6.2549,-6.2254,-6.2257,-6.2259,0,-6.0893,-6.1001,-6.11,-6.1171,-6.1223,-6.1336,-6.1408,-6.1428,-6.1503,-6.1608,-6.169,-6.1809,-6.1906,-6.21,-6.2148,-6.2257,-6.2249,-6.2365,-6.2265,-6.226,-6.225,-6.2243,-6.2253,-6.2384,-6.2388,-6.239,-6.2392,0,-6.116,-6.1172,-6.1277,-6.1388,-6.1475,-6.1563,-6.1647,-6.1705,-6.1736,-6.1821,-6.1945,-6.202,-6.2167,-6.2285,-6.2396,-6.2443,-6.2423,-6.2423,-6.2454,-6.2454,-6.2439,-6.2448,-6.2103,-6.2415,-6.2413,-6.2411,-6.241,-6.2409,-6.1348,-6.1443,-6.1527,-6.1644,-6.171,-6.1789,-6.1882,-6.1926,-6.203,-6.2152,-6.2157,-6.2292,-6.2373,-6.2519,-6.2573,-6.2677,-6.2642,-6.2686,-6.2698,-6.2709,-6.2718,-6.2423,-6.2697,-6.2697,-6.2696,-6.2696,-6.2695,0,-6.1614,-6.1667,-6.1774,-6.1893,-6.1985,-6.1959,-6.205,-6.2128,-6.2248,-6.2326,-6.2421,-6.2563,-6.2678,-6.2734,-6.2847,-6.292,-6.2913,-6.2949,-6.2943,-6.2954,-6.2744,-6.2706,-6.2952,-6.2952,-6.2952,-6.2952,-6.2952,-6.2952,-6.1763,-6.1922,-6.1943,-6.2134,-6.2185,-6.2318,-6.2373,-6.2445,-6.2507,-6.2667,-6.2762,-6.2799,-6.2868,-6.2986,-6.3089,-6.3102,-6.3144,-6.3184,-6.3193,-6.2995,-6.2969,-6.2944,-6.2908,-6.3193,-6.3194,-6.3395,-6.3397,-6.3398]}]]